Miscellaneous Local Product
Issued by NWS Hastings, NE

Home | Current Version | Previous Version | Text Only | Print | Product List | Glossary Off
Versions: 1 2 3 4 5 6 7 8 9 10 11 12 13 14 15 16 17 18 19 20 21 22 23 24 25 26 27 28 29 30 31 32 33 34 35 36 37 38 39 40 41 42 43 44 45 46 47 48 49 50

984
AXUS43 KGID 201902
MISGRI

GID CWA HOURLY WEATHER ROUNDUP
NATIONAL WEATHER SERVICE HASTINGS NE
200 PM CDT SUN AUG 20 2017

NOTE: "FAIR" INDICATES FEW OR NO CLOUDS BELOW 12,000 FEET WITH NO
SIGNIFICANT WEATHER AND/OR OBSTRUCTIONS TO VISIBILITY.

...SOUTH CENTRAL NEBRASKA...

CITY           SKY/WX    TMP DP  RH WIND       PRES   REMARKS
GRAND ISLAND   MOSUNNY   84  73  69 SE12      29.93F HX  90
HASTINGS       SUNNY     85  72  65 E9        29.93F HX  91
KEARNEY        SUNNY     85  72  65 SE8       29.93F HX  91
ORD            SUNNY     82  67  60 E10       29.93F
YORK           MOSUNNY   82  72  69 SE9G17    29.94F
AURORA         MOSUNNY   84  74  72 SE12      29.93F HX  90
LEXINGTON      SUNNY     83  72  68 E8        29.93F
HOLDREGE       SUNNY     85  67  54 SE9       29.93F
HEBRON         SUNNY     89  73  58 S10       29.92F HX  96

...NEBRASKA PANHANDLE...

CITY           SKY/WX    TMP DP  RH WIND       PRES   REMARKS
CHADRON        SUNNY     83  51  33 E16       30.04F
ALLIANCE       SUNNY     81  55  40 E15       30.05F
SCOTTSBLUFF    SUNNY     83  54  36 E12       30.06F
SIDNEY         SUNNY     84  62  47 NE12      30.07F

...WESTERN AND NORTH CENTRAL NEBRASKA...

CITY           SKY/WX    TMP DP  RH WIND       PRES   REMARKS
VALENTINE      SUNNY     84  55  36 NE13      30.03F
AINSWORTH      SUNNY     81  62  51 NE16      30.01R
ONEILL         SUNNY     82  67  59 E9        29.97R
BROKEN BOW     SUNNY     82  68  62 E12       29.96S
IMPERIAL       SUNNY     86  62  44 E9        29.97S
NORTH PLATTE   SUNNY     85  67  54 E10       29.95S
MCCOOK         SUNNY     89  60  37 E6        29.92F

...EASTERN NEBRASKA...

CITY           SKY/WX    TMP DP  RH WIND       PRES   REMARKS
NORFOLK        SUNNY     83  66  56 E9        29.94F
SO SIOUX CITY  PTSUNNY   84  68  58 S5        29.94F
TEKAMAH        SUNNY     82  68  62 VRB5      29.96F
COLUMBUS       MOSUNNY   81  70  69 E12       29.96F
ALBION         CLOUDY    80  70  71 E9        29.96S
OMAHA EPPLEY   MOSUNNY   81  65  58 SE7       29.96F
OFFUTT AFB     PTSUNNY   78  66  66 SE9       29.96F
MILLARD        CLOUDY    82  67  60 SE10      29.96F
LINCOLN        SUNNY     81  69  67 SE16      29.96F
NEBRASKA CITY  CLOUDY    78  66  66 SE17G23   29.99F
BEATRICE       SUNNY     89  72  57 SE13G18   29.94F HX  95
FALLS CITY     CLOUDY    82  68  62 NE16G24   30.01R

...NORTHERN KANSAS...

CITY           SKY/WX    TMP DP  RH WIND       PRES   REMARKS
GOODLAND       CLOUDY    89  57  33 E3        29.98F
HILL CITY      MOSUNNY   96  63  33 S10       29.91F HX  97
NORTON         CLEAR     95  55  26 SE8       29.90  HX  93
PHILLIPSBURG   SUNNY     97  63  32 S9        29.88F HX  98
SMITH CENTER   SUNNY     91  70  49 S8G16     29.89F HX  97
HAYS           SUNNY     97  64  33 S16       29.89F HX  99
RUSSELL        MOSUNNY   95  67  39 S15G26    29.89F HX  99
CONCORDIA      MOSUNNY   92  73  53 SE8       29.91S HX 100
SALINA         MOSUNNY   99  68  36 S15G24    29.89F HX 104
TOPEKA         SUNNY     90  74  59 SE10      29.95F HX  99



USA.gov is the U.S. government's official web portal to all federal, state and local government web resources and services.